Location: Copper Breaks State Park
(34.1132°N, 99.7492°W)
Time: 01:16:42
(UTC-05:00)

Amateur Radio Satellites - All Passes

Search period start: 24 March 2017 00:46
Search period end: 25 March 2017 00:46
Location: Copper Breaks State Park, 34.1132°N, 99.7492°W

Satellite Date Start Highest point End Downlink Frequencies (MHz)
Time Altitude Azimuth
UKube-1 24 Mar 00:50:53 00:52:43 12° 66° (ENE) 00:54:31 .
AIST 2D 24 Mar 01:04:45 01:08:15 76° 282° (WNW) 01:11:42 435.315
NANOSAT C BR1 24 Mar 01:12:56 01:17:05 54° 100° (E) 01:21:11 145.865
EO-79 24 Mar 01:15:28 01:19:41 65° 100° (E) 01:23:52 145.935-145.965
50 SAT 24 Mar 01:21:49 01:25:14 71° 76° (ENE) 01:28:40 437.505
SPROUT 24 Mar 01:21:49 01:26:06 85° 256° (WSW) 01:30:26 437.525
DX 1 24 Mar 01:37:41 01:41:58 67° 75° (ENE) 01:46:17 434.975-435.025
POLYITAN 1 24 Mar 01:42:43 01:46:52 56° 285° (WNW) 01:50:58 437.675
QB50P2 24 Mar 01:47:16 01:51:19 45° 286° (WNW) 01:55:20 145.880/145.840
VELOX 1 24 Mar 01:51:02 01:54:58 32° 262° (W) 01:58:55 145.980
BEESAT 2 24 Mar 01:58:22 02:00:26 14° 310° (NW) 02:02:31 435.950
DUCHIFAT 1 24 Mar 02:04:19 02:08:12 37° 287° (WNW) 02:12:03 145.980
SO-50 24 Mar 02:04:30 02:08:57 66° 244° (WSW) 02:13:24 436.795
UKube-1 24 Mar 02:24:07 02:28:16 48° 260° (W) 02:32:26 .
BUGSAT 1 24 Mar 02:32:34 02:36:40 55° 285° (WNW) 02:40:41 437.445
Gurwin Techsat 1B 24 Mar 02:38:50 02:42:54 22° 95° (E) 02:46:58 435.225
Oscar 19 24 Mar 02:47:45 02:52:46 50° 100° (E) 02:57:47 437.125/150
NANOSAT C BR1 24 Mar 02:51:29 02:52:16 10° 294° (WNW) 02:53:02 145.865
BEESAT 24 Mar 02:57:08 03:00:55 24° 69° (ENE) 03:04:43 436.000
ITUPSAT 1 24 Mar 03:10:47 03:15:02 33° 71° (ENE) 03:19:17 437.325
MOZHAYETS 4 24 Mar 03:40:19 03:44:04 25° 70° (ENE) 03:47:50
Gurwin Techsat 1B 24 Mar 04:18:01 04:22:54 38° 289° (WNW) 04:27:45 435.225
CUBESAT XI-V 24 Mar 04:26:53 04:28:35 12° 66° (ENE) 04:30:17 437.345
ITAMSAT 1 24 Mar 04:28:20 04:33:13 40° 99° (E) 04:38:04 435.822/435.867
Oscar 19 24 Mar 04:28:26 04:31:38 17° 294° (WNW) 04:34:49 437.125/150
BEESAT 24 Mar 04:34:21 04:38:30 29° 263° (W) 04:42:40 436.000
ITUPSAT 1 24 Mar 04:49:13 04:52:51 21° 264° (W) 04:56:29 437.325
O/OREOS (USA 219) 24 Mar 04:51:04 04:55:39 72° 252° (WSW) 05:00:13 437.305
AO-7 24 Mar 05:04:30 05:12:44 64° 104° (ESE) 05:20:55 .
MOZHAYETS 4 24 Mar 05:17:18 05:21:06 25° 264° (W) 05:24:54
KKS-1 24 Mar 05:18:35 05:22:59 68° 75° (ENE) 05:27:26 437.445
ISS 24 Mar 05:19:44 05:22:43 31° 37° (NE) 05:25:42 437.550
Tancredo 1 24 Mar 05:32:34 05:35:42 47° 40° (NE) 05:38:48 437.200
CUBESAT XI-V 24 Mar 06:00:55 06:05:25 56° 260° (W) 06:09:56 437.345
STARS 24 Mar 06:02:48 06:07:13 88° 257° (WSW) 06:11:40 437.465
ITAMSAT 1 24 Mar 06:08:36 06:12:21 21° 294° (WNW) 06:16:05 435.822/435.867
XW-2B 24 Mar 06:44:27 06:44:56 10° 92° (E) 06:45:24 145.730 - 145.750
DOVE 4 24 Mar 06:45:48 06:50:03 24° 94° (E) 06:54:13 437.250
XW-2C 24 Mar 06:53:00 06:55:04 14° 94° (E) 06:57:08 145.795 - 145.815
ISS 24 Mar 06:56:35 06:59:02 19° 231° (SW) 07:01:29 437.550
AO-7 24 Mar 06:58:24 07:04:50 26° 301° (WNW) 07:11:16 .
Tancredo 1 24 Mar 07:10:18 07:11:30 12° 234° (SW) 07:12:42 437.200
M-CUBED/EXP-1 PRIME 24 Mar 07:21:01 07:24:24 47° 256° (WSW) 07:28:04 437.505
STRAND 1 24 Mar 07:23:08 07:27:08 23° 68° (ENE) 07:31:10 437.568
CUTE-I 24 Mar 07:36:53 07:42:04 49° 100° (E) 07:47:12 437.470
LilacSat-2 24 Mar 07:41:51 07:45:37 73° 102° (ESE) 07:49:21 437.200
XW-2F 24 Mar 07:45:32 07:49:16 75° 101° (E) 07:52:58 145.980 - 146.000
AO-85 24 Mar 07:45:55 07:49:51 70° 61° (ENE) 07:53:56 145.980
YUBILEINY 24 Mar 07:51:28 07:58:22 27° 84° (E) 08:05:14 435.215
NO-84 24 Mar 07:54:38 07:57:20 38° 129° (SE) 08:00:01 435.350 FM
HO-68 24 Mar 08:05:55 08:11:15 22° 95° (E) 08:16:34 435.675
XW-2D 24 Mar 08:09:50 08:13:25 44° 285° (WNW) 08:16:59 145.860 - 145.880
XW-2B 24 Mar 08:15:46 08:19:16 38° 286° (WNW) 08:22:45 145.730 - 145.750
NUDT-PHONESAT 24 Mar 08:19:22 08:22:52 42° 285° (WNW) 08:26:21 437.300
DOVE 4 24 Mar 08:22:54 08:27:42 35° 289° (WNW) 08:32:26 437.250
KAITUO 1B 24 Mar 08:23:12 08:26:38 38° 286° (WNW) 08:30:03 145.475/437.950
XW-2C 24 Mar 08:26:03 08:29:17 28° 287° (WNW) 08:32:30 145.795 - 145.815
BEESAT 3 24 Mar 08:30:53 08:33:49 19° 52° (NE) 08:36:43 437.485
CUBEBUG 2 24 Mar 08:35:12 08:36:53 12° 91° (E) 08:38:34 437.445
BEESAT 2 24 Mar 08:42:16 08:42:57 10° 47° (NE) 08:43:37 435.950
STRAND 1 24 Mar 09:01:25 09:06:05 35° 262° (W) 09:10:46 437.568
JUGNU 24 Mar 09:03:28 09:05:56 13° 166° (SSE) 09:08:24 437.505
AAUSAT CUBESAT 2 24 Mar 09:10:20 09:13:36 22° 96° (E) 09:16:52 437.432
XW-2A 24 Mar 09:14:06 09:17:24 52° 284° (WNW) 09:20:39 145.665 - 145.685
SEEDS 24 Mar 09:17:06 09:21:15 62° 101° (E) 09:25:23 437.485
CUTE-I 24 Mar 09:18:07 09:21:40 18° 295° (WNW) 09:25:12 437.470
CUTE 1.7 + AOD 2 24 Mar 09:18:45 09:22:58 77° 283° (WNW) 09:27:10 437.475
AO-73 24 Mar 09:24:07 09:26:02 13° 92° (E) 09:27:57 145.935
PRISM 24 Mar 09:28:36 09:30:36 14° 67° (ENE) 09:32:38 437.425
NO-84 24 Mar 09:33:59 09:35:01 11° 324° (NW) 09:36:04 435.350 FM
UWE-3 24 Mar 09:41:30 09:45:39 45° 99° (E) 09:49:39 435.000/436.395/437.385
YUBILEINY 24 Mar 09:46:00 09:54:32 56° 280° (W) 10:03:05 435.215
HO-68 24 Mar 09:52:17 09:59:16 58° 290° (WNW) 10:06:15 435.675
BEESAT 3 24 Mar 10:07:54 10:11:26 30° 248° (WSW) 10:14:55 437.485
CUBEBUG 2 24 Mar 10:09:32 10:13:46 45° 286° (WNW) 10:17:50 437.445
BEESAT 2 24 Mar 10:17:07 10:21:09 69° 243° (WSW) 10:25:08 435.950
Oscar 11 24 Mar 10:25:39 10:29:56 67° 101° (E) 10:34:11 .
ZACube-1 24 Mar 10:28:15 10:32:30 85° 283° (WNW) 10:36:39 437.345
FO-29 24 Mar 10:33:29 10:40:27 36° 68° (ENE) 10:47:09 435.910
PCSat 24 Mar 10:35:02 10:40:08 44° 110° (ESE) 10:45:15 145.827
AAUSAT CUBESAT 2 24 Mar 10:45:39 10:48:56 23° 289° (WNW) 10:52:12 437.432
JUGNU 24 Mar 10:50:08 10:54:14 19° 175° (S) 10:58:20 437.505
TIGRISAT 24 Mar 10:52:14 10:56:52 62° 75° (ENE) 11:01:30 435.000
DELFI C3 24 Mar 10:52:58 10:56:41 37° 98° (E) 11:00:23 145.870
AO-73 24 Mar 10:58:30 11:02:26 39° 287° (WNW) 11:06:17 145.935
UNISAT 6 24 Mar 11:01:31 11:06:13 86° 75° (ENE) 11:10:56 437.425
PRISM 24 Mar 11:01:45 11:05:31 38° 261° (W) 11:09:20 437.425
UWE-3 24 Mar 11:19:48 11:21:37 12° 294° (WNW) 11:23:25 435.000/436.395/437.385
AIST 2D 24 Mar 11:36:07 11:38:45 20° 72° (ENE) 11:41:23 435.315
LO-87 24 Mar 11:41:54 11:43:44 13° 94° (E) 11:45:33 145.935 - 145.965
NANOSAT C BR1 24 Mar 12:01:33 12:05:02 25° 70° (ENE) 12:08:30 145.865
EO-79 24 Mar 12:04:13 12:07:55 29° 71° (ENE) 12:11:38 145.935-145.965
FO-29 24 Mar 12:17:49 12:25:10 43° 262° (W) 12:32:22 435.910
PCSat 24 Mar 12:19:30 12:23:41 22° 306° (NW) 12:27:54 145.827
ESTCUBE 1 24 Mar 12:21:14 12:24:52 24° 96° (E) 12:28:29 437.505/2401.250
DELFI C3 24 Mar 12:29:12 12:31:06 13° 292° (WNW) 12:33:00 145.870
POLYITAN 1 24 Mar 12:30:56 12:35:10 63° 76° (ENE) 12:39:25 437.675
TIGRISAT 24 Mar 12:32:54 12:33:50 11° 269° (W) 12:34:47 435.000
QB50P2 24 Mar 12:35:23 12:39:39 79° 77° (ENE) 12:43:57 145.880/145.840
JUGNU 24 Mar 12:38:32 12:42:35 19° 186° (S) 12:46:38 437.505
RS-15 24 Mar 12:47:00 12:57:13 36° 104° (ESE) 13:07:44 29.354- 29.394
SRMSAT 24 Mar 12:48:26 12:52:20 18° 172° (S) 12:56:13 437.500
DUCHIFAT 1 24 Mar 12:51:30 12:55:46 88° 265° (W) 13:00:02 145.980
AIST 2D 24 Mar 13:09:22 13:11:52 18° 265° (W) 13:14:21 435.315
SPROUT 24 Mar 13:12:00 13:15:17 21° 95° (E) 13:18:32 437.525
LO-87 24 Mar 13:14:02 13:17:12 28° 287° (WNW) 13:20:21 145.935 - 145.965
BUGSAT 1 24 Mar 13:17:52 13:21:59 57° 75° (ENE) 13:26:10 437.445
DX 1 24 Mar 13:30:49 13:33:27 15° 94° (E) 13:36:03 434.975-435.025
NANOSAT C BR1 24 Mar 13:37:18 13:40:37 22° 264° (W) 13:43:58 145.865
EO-79 24 Mar 13:40:38 13:43:39 19° 265° (W) 13:46:42 145.935-145.965
VELOX 1 24 Mar 13:44:04 13:48:30 61° 101° (ESE) 13:52:53 145.980
Gurwin Techsat 1B 24 Mar 13:56:19 14:00:35 25° 68° (ENE) 14:04:53 435.225
ESTCUBE 1 24 Mar 13:57:50 14:01:33 26° 290° (WNW) 14:05:17 437.505/2401.250
Oscar 19 24 Mar 14:00:52 14:05:47 50° 73° (ENE) 14:10:43 437.125/150
AO-7 24 Mar 14:14:00 14:16:07 11° 50° (NE) 14:18:13 .
UKube-1 24 Mar 14:14:47 14:18:46 35° 99° (E) 14:22:43 .
50 SAT 24 Mar 14:22:30 14:25:58 58° 284° (WNW) 14:29:24 437.505
JUGNU 24 Mar 14:28:50 14:30:53 12° 195° (SSW) 14:32:56 437.505
SRMSAT 24 Mar 14:36:35 14:40:50 20° 182° (S) 14:45:05 437.500
SPROUT 24 Mar 14:47:33 14:51:07 26° 289° (WNW) 14:54:39 437.525
RS-15 24 Mar 14:57:11 15:08:57 62° 304° (NW) 15:21:12 29.354- 29.394
DX 1 24 Mar 15:05:40 15:09:42 37° 288° (WNW) 15:13:44 434.975-435.025
ITUPSAT 1 24 Mar 15:17:35 15:18:35 11° 92° (E) 15:19:35 437.325
VELOX 1 24 Mar 15:23:25 15:24:22 11° 295° (WNW) 15:25:18 145.980
Gurwin Techsat 1B 24 Mar 15:35:33 15:40:19 34° 262° (W) 15:45:07 435.225
Oscar 19 24 Mar 15:42:23 15:45:19 15° 267° (W) 15:48:16 437.125/150
ITAMSAT 1 24 Mar 15:42:30 15:47:24 43° 72° (ENE) 15:52:21 435.822/435.867
UKube-1 24 Mar 15:51:43 15:54:28 17° 293° (WNW) 15:57:13 .
AO-7 24 Mar 15:59:03 16:07:14 63° 69° (ENE) 16:15:23 .
NO-84 24 Mar 16:07:50 16:11:09 56° 47° (NE) 16:14:45 435.350 FM
SO-50 24 Mar 16:14:37 16:19:18 84° 302° (WNW) 16:23:56 436.795
SRMSAT 24 Mar 16:26:08 16:29:19 15° 192° (SSW) 16:32:30 437.500
BEESAT 24 Mar 16:37:20 16:42:07 87° 284° (WNW) 16:46:52 436.000
ITUPSAT 1 24 Mar 16:52:02 16:56:44 62° 286° (WNW) 17:01:25 437.325
KKS-1 24 Mar 17:14:19 17:17:17 17° 95° (E) 17:20:14 437.445
MOZHAYETS 4 24 Mar 17:14:58 17:19:33 82° 281° (WNW) 17:24:05
RS-15 24 Mar 17:16:36 17:24:46 20° 332° (NNW) 17:33:03 29.354- 29.394
O/OREOS (USA 219) 24 Mar 17:21:33 17:24:50 20° 101° (E) 17:28:10 437.305
ITAMSAT 1 24 Mar 17:23:24 17:27:00 19° 266° (W) 17:30:37 435.822/435.867
NO-84 24 Mar 17:47:39 17:48:27 11° 237° (WSW) 17:49:16 435.350 FM
DOVE 4 24 Mar 17:48:50 17:51:16 14° 65° (ENE) 17:53:47 437.250
AO-7 24 Mar 17:53:56 18:00:21 24° 264° (W) 18:06:49 .
STARS 24 Mar 17:56:34 18:00:00 22° 96° (E) 18:03:24 437.465
CUBESAT XI-V 24 Mar 18:00:59 18:05:27 46° 99° (E) 18:09:55 437.345
LilacSat-2 24 Mar 18:20:38 18:23:31 21° 71° (ENE) 18:26:24 437.200
XW-2F 24 Mar 18:23:25 18:26:15 20° 71° (ENE) 18:29:04 145.980 - 146.000
HO-68 24 Mar 18:34:43 18:36:39 11° 55° (NE) 18:38:34 435.675
XW-2D 24 Mar 18:46:59 18:50:38 44° 75° (ENE) 18:54:16 145.860 - 145.880
KKS-1 24 Mar 18:49:49 18:53:54 35° 288° (WNW) 18:57:57 437.445
XW-2B 24 Mar 18:52:47 18:56:29 51° 76° (ENE) 19:00:12 145.730 - 145.750
NUDT-PHONESAT 24 Mar 18:54:41 18:58:14 42° 75° (ENE) 19:01:47 437.300
CUTE-I 24 Mar 18:54:49 19:00:03 56° 73° (ENE) 19:05:18 437.470
KAITUO 1B 24 Mar 18:59:02 19:02:41 49° 75° (ENE) 19:06:19 145.475/437.950
O/OREOS (USA 219) 24 Mar 19:00:02 19:03:59 30° 295° (WNW) 19:08:00 437.305
XW-2C 24 Mar 19:02:45 19:06:34 74° 77° (ENE) 19:10:22 145.795 - 145.815
M-CUBED/EXP-1 PRIME 24 Mar 19:03:24 19:06:28 17° 99° (E) 19:09:31 437.505
DOVE 4 24 Mar 19:24:02 19:28:24 49° 262° (W) 19:33:04 437.250
PCSat 24 Mar 19:27:29 19:31:07 18° 51° (NE) 19:34:44 145.827
STARS 24 Mar 19:32:33 19:36:16 27° 290° (WNW) 19:39:57 437.465
RS-15 24 Mar 19:39:35 19:44:50 13° 10° (N) 19:50:02 29.354- 29.394
CUBESAT XI-V 24 Mar 19:39:50 19:42:24 15° 293° (WNW) 19:44:59 437.345
XW-2A 24 Mar 19:42:01 19:44:50 24° 72° (ENE) 19:47:39 145.665 - 145.685
LilacSat-2 24 Mar 19:54:43 19:57:39 21° 264° (W) 20:00:37 437.200
XW-2F 24 Mar 19:57:20 20:00:15 21° 264° (W) 20:03:10 145.980 - 146.000
YUBILEINY 24 Mar 20:00:34 20:09:11 63° 81° (E) 20:17:47 435.215
SEEDS 24 Mar 20:05:23 20:08:49 25° 71° (ENE) 20:12:15 437.485
CUTE 1.7 + AOD 2 24 Mar 20:07:27 20:11:26 43° 74° (ENE) 20:15:26 437.475
HO-68 24 Mar 20:16:00 20:23:07 73° 72° (ENE) 20:30:15 435.675
UWE-3 24 Mar 20:34:34 20:38:24 26° 71° (ENE) 20:42:12 435.000/436.395/437.385
M-CUBED/EXP-1 PRIME 24 Mar 20:36:35 20:40:57 42° 292° (WNW) 20:45:20 437.505
CUTE-I 24 Mar 20:37:23 20:40:22 15° 267° (W) 20:43:23 437.470
CUBEBUG 2 24 Mar 21:02:35 21:07:20 88° 77° (ENE) 21:12:07 437.445
PCSat 24 Mar 21:09:33 21:14:53 59° 248° (WSW) 21:20:11 145.827
STRAND 1 24 Mar 21:15:08 21:20:15 76° 284° (WNW) 21:25:18 437.568
XW-2A 24 Mar 21:15:41 21:17:33 14° 266° (W) 21:19:27 145.665 - 145.685
Oscar 11 24 Mar 21:16:47 21:20:34 31° 72° (ENE) 21:24:23 .
ZACube-1 24 Mar 21:19:37 21:23:59 46° 74° (ENE) 21:28:19 437.345
AAUSAT CUBESAT 2 24 Mar 21:30:57 21:34:58 57° 259° (W) 21:39:01 437.432
DELFI C3 24 Mar 21:36:27 21:38:18 13° 68° (ENE) 21:40:09 145.870
SEEDS 24 Mar 21:41:21 21:44:26 20° 265° (W) 21:47:32 437.485
CUTE 1.7 + AOD 2 24 Mar 21:45:50 21:47:26 12° 267° (W) 21:49:03 437.475
AO-73 24 Mar 21:49:04 21:53:38 88° 259° (W) 21:58:10 145.935
RS-15 24 Mar 21:52:20 22:03:06 34° 44° (NE) 22:13:26 29.354- 29.394
AO-85 24 Mar 21:56:22 22:00:52 59° 116° (ESE) 22:05:03 145.980
ISS 24 Mar 21:56:31 21:59:44 76° 137° (SE) 22:03:00 437.550
YUBILEINY 24 Mar 21:58:51 22:05:11 23° 278° (W) 22:11:33 435.215
Tancredo 1 24 Mar 22:06:10 22:09:18 69° 318° (NW) 22:12:28 437.200
HO-68 24 Mar 22:07:01 22:11:21 17° 267° (W) 22:15:42 435.675
UWE-3 24 Mar 22:10:47 22:14:42 26° 264° (W) 22:18:36 435.000/436.395/437.385
PRISM 24 Mar 22:46:29 22:50:18 35° 99° (E) 22:54:08 437.425
TIGRISAT 24 Mar 22:49:00 22:51:45 16° 93° (E) 22:54:27 435.000
Oscar 11 24 Mar 22:53:46 22:56:43 18° 266° (W) 22:59:40 .
UNISAT 6 24 Mar 22:57:55 23:01:24 23° 95° (E) 23:04:49 437.425
ZACube-1 24 Mar 22:58:09 23:00:25 14° 267° (W) 23:02:41 437.345
DELFI C3 24 Mar 23:09:08 23:12:44 35° 262° (W) 23:16:21 145.870
ESTCUBE 1 24 Mar 23:18:18 23:20:43 15° 67° (ENE) 23:23:09 437.505/2401.250
FO-29 24 Mar 23:33:10 23:38:25 33° 96° (E) 23:43:13 435.910
ISS 24 Mar 23:35:00 23:36:34 13° 332° (NNW) 23:38:08 437.550
AO-85 24 Mar 23:39:33 23:41:31 13° 310° (NW) 23:43:25 145.980
LO-87 24 Mar 23:45:47 23:49:18 57° 76° (ENE) 23:52:51 145.935 - 145.965
BEESAT 3 24 Mar 23:53:30 23:57:23 76° 299° (WNW) 00:01:20 437.485
SPROUT 25 Mar 00:04:02 00:04:59 11° 66° (ENE) 00:05:57 437.525
RS-15 25 Mar 00:04:32 00:16:40 73° 246° (WSW) 00:28:10 29.354- 29.394
BEESAT 2 25 Mar 00:04:44 00:08:32 49° 115° (ESE) 00:12:23 435.950
POLYITAN 1 25 Mar 00:21:13 00:23:18 13° 93° (E) 00:25:23 437.675
PRISM 25 Mar 00:22:47 00:25:16 15° 292° (WNW) 00:27:43 437.425
TIGRISAT 25 Mar 00:24:31 00:28:31 34° 288° (WNW) 00:32:25 435.000
QB50P2 25 Mar 00:25:10 00:27:53 17° 94° (E) 00:30:37 145.880/145.840
UNISAT 6 25 Mar 00:34:24 00:38:01 25° 290° (WNW) 00:41:32 437.425
AIST 2D 25 Mar 00:37:08 00:40:24 38° 98° (E) 00:43:40 435.315
VELOX 1 25 Mar 00:37:42 00:41:37 33° 72° (ENE) 00:45:34 145.980
DUCHIFAT 1 25 Mar 00:40:11 00:43:10 19° 95° (E) 00:46:07 145.980
